When you browse on this site, cookies collect data to enhance your experience and personalize the content and advertising you see.
Visit our Privacy Policy to learn more. By continuing to use the site, you agree to this use of cookies and data.
  • In Hungary
  • List of Countries
  • For 7 days
  • Water Temperature
  • Weather Map
  • News
  • Weather Widgets
  • user-avatar
    Login

    Hourly Weather Kidero

    Today, 20 October, Sunday

    Time Temperature Precipitation Wind Pressure Humidity
    00:00 +6°C° 0 mm 0 mps 605 mmHg 77%
    01:00 +6°C° 0 mm 0 mps 605 mmHg 77%
    02:00 +7°C° 0 mm 1 mps 605 mmHg 78%
    03:00 +6°C° 0 mm 1 mps 605 mmHg 78%
    04:00 +6°C° 0 mm 1 mps 605 mmHg 78%
    05:00 +6°C° 0 mm 1 mps 605 mmHg 78%
    06:00 +6°C° 0 mm 1 mps 606 mmHg 78%
    07:00 +8°C° 0 mm 1 mps 606 mmHg 72%
    08:00 +10°C° 0 mm 1 mps 607 mmHg 66%
    09:00 +12°C° 0 mm 1 mps 608 mmHg 59%
    10:00 +13°C° 0 mm 1 mps 609 mmHg 58%
    11:00 +14°C° 0 mm 1 mps 609 mmHg 57%
    12:00 +15°C° 0 mm 1 mps 609 mmHg 55%
    13:00 +14°C° 0.2 mm 1 mps 609 mmHg 58%
    14:00 +14°C° 0.2 mm 1 mps 608 mmHg 62%
    15:00 +13°C° 0.2 mm 1 mps 608 mmHg 65%
    16:00 +12°C° 0.2 mm 1 mps 608 mmHg 72%
    17:00 +10°C° 0.2 mm 1 mps 607 mmHg 78%
    18:00 +9°C° 0.2 mm 1 mps 607 mmHg 85%
    19:00 +7°C° 0.1 mm 0 mps 607 mmHg 86%
    20:00 +7°C° 0.1 mm 0 mps 607 mmHg 88%
    21:00 +7°C° 0.1 mm 0 mps 606 mmHg 89%
    22:00 +6°C° 0 mm 0 mps 606 mmHg 90%
    23:00 +6°C° 0 mm 0 mps 607 mmHg 91%

    Tomorrow, 21 October, Monday

    Time Temperature Precipitation Wind Pressure Humidity
    00:00 +6°C° 0 mm 0 mps 607 mmHg 92%
    01:00 +6°C° 0.1 mm 0 mps 607 mmHg 93%
    02:00 +6°C° 0.1 mm 0 mps 607 mmHg 93%
    03:00 +6°C° 0.1 mm 0 mps 607 mmHg 94%
    04:00 +6°C° 0 mm 0 mps 606 mmHg 94%
    05:00 +5°C° 0 mm 0 mps 606 mmHg 94%
    06:00 +5°C° 0 mm 0 mps 606 mmHg 94%
    07:00 +6°C° 0 mm 0 mps 607 mmHg 89%
    08:00 +7°C° 0 mm 0 mps 607 mmHg 84%
    09:00 +10°C° 0 mm 1 mps 608 mmHg 79%
    10:00 +11°C° 0 mm 1 mps 608 mmHg 75%
    11:00 +12°C° 0 mm 1 mps 609 mmHg 72%
    12:00 +12°C° 0 mm 2 mps 609 mmHg 68%
    13:00 +12°C° 0 mm 1 mps 609 mmHg 69%
    14:00 +12°C° 0 mm 1 mps 608 mmHg 70%
    15:00 +12°C° 0 mm 1 mps 608 mmHg 71%
    16:00 +11°C° 0 mm 1 mps 608 mmHg 78%
    17:00 +9°C° 0 mm 1 mps 607 mmHg 84%
    18:00 +8°C° 0 mm 1 mps 607 mmHg 91%
    19:00 +8°C° 0 mm 1 mps 606 mmHg 91%
    20:00 +8°C° 0 mm 1 mps 606 mmHg 91%
    21:00 +7°C° 0 mm 1 mps 606 mmHg 91%
    22:00 +7°C° 0 mm 1 mps 606 mmHg 89%
    23:00 +7°C° 0 mm 1 mps 606 mmHg 88%

    Day after tomorrow, 22 October, Tuesday

    Time Temperature Precipitation Wind Pressure Humidity
    00:00 +7°C° 0 mm 1 mps 606 mmHg 87%
    01:00 +7°C° 0 mm 1 mps 606 mmHg 87%
    02:00 +7°C° 0 mm 1 mps 605 mmHg 87%
    03:00 +6°C° 0 mm 1 mps 605 mmHg 88%
    04:00 +5°C° 0 mm 0 mps 605 mmHg 88%
    05:00 +4°C° 0 mm 0 mps 604 mmHg 88%
    06:00 +3°C° 0 mm 0 mps 604 mmHg 89%
    07:00 +6°C° 0 mm 1 mps 605 mmHg 80%
    08:00 +8°C° 0 mm 1 mps 606 mmHg 72%
    09:00 +10°C° 0 mm 1 mps 607 mmHg 63%
    10:00 +11°C° 0 mm 1 mps 607 mmHg 60%
    11:00 +12°C° 0 mm 1 mps 608 mmHg 57%
    12:00 +13°C° 0 mm 2 mps 608 mmHg 54%
    13:00 +13°C° 0 mm 2 mps 607 mmHg 57%
    14:00 +13°C° 0 mm 2 mps 607 mmHg 60%
    15:00 +12°C° 0 mm 2 mps 607 mmHg 63%
    16:00 +11°C° 0 mm 1 mps 606 mmHg 71%
    17:00 +9°C° 0 mm 1 mps 606 mmHg 79%
    18:00 +6°C° 0 mm 0 mps 605 mmHg 87%
    19:00 +6°C° 0 mm 0 mps 605 mmHg 88%
    20:00 +6°C° 0 mm 0 mps 605 mmHg 88%
    21:00 +5°C° 0 mm 0 mps 605 mmHg 88%
    22:00 +5°C° 0 mm 0 mps 605 mmHg 89%
    23:00 +5°C° 0 mm 0 mps 605 mmHg 90%

    23 October, Wednesday

    Time Temperature Precipitation Wind Pressure Humidity
    00:00 +5°C° 0 mm 0 mps 605 mmHg 91%
    01:00 +5°C° 0 mm 0 mps 605 mmHg 90%
    02:00 +5°C° 0 mm 0 mps 605 mmHg 89%
    03:00 +5°C° 0 mm 0 mps 605 mmHg 88%
    04:00 +5°C° 0 mm 0 mps 605 mmHg 88%
    05:00 +4°C° 0 mm 0 mps 605 mmHg 88%
    06:00 +4°C° 0 mm 0 mps 604 mmHg 88%
    07:00 +5°C° 0 mm 0 mps 605 mmHg 81%
    08:00 +7°C° 0 mm 0 mps 606 mmHg 74%
    09:00 +9°C° 0 mm 1 mps 607 mmHg 67%
    10:00 +10°C° 0 mm 1 mps 607 mmHg 65%
    11:00 +11°C° 0 mm 1 mps 607 mmHg 63%
    12:00 +10°C° 0 mm 2 mps 607 mmHg 61%
    13:00 +10°C° 0 mm 2 mps 607 mmHg 63%
    14:00 +10°C° 0 mm 2 mps 606 mmHg 65%
    15:00 +9°C° 0 mm 2 mps 606 mmHg 67%
    16:00 +9°C° 0 mm 1 mps 606 mmHg 75%
    17:00 +8°C° 0 mm 1 mps 605 mmHg 82%
    18:00 +6°C° 0 mm 1 mps 605 mmHg 89%
    19:00 +6°C° 0 mm 1 mps 605 mmHg 89%
    20:00 +6°C° 0 mm 1 mps 605 mmHg 89%
    21:00 +6°C° 0 mm 1 mps 605 mmHg 89%
    22:00 +6°C° 0 mm 1 mps 605 mmHg 88%
    23:00 +6°C° 0 mm 1 mps 605 mmHg 88%

    24 October, Thursday

    Time Temperature Precipitation Wind Pressure Humidity
    00:00 +6°C° 0 mm 1 mps 605 mmHg 87%
    01:00 +5°C° 0 mm 1 mps 605 mmHg 87%
    02:00 +5°C° 0 mm 1 mps 604 mmHg 87%
    03:00 +5°C° 0 mm 1 mps 604 mmHg 88%
    04:00 +4°C° 0 mm 1 mps 604 mmHg 88%
    05:00 +4°C° 0 mm 1 mps 604 mmHg 88%
    06:00 +4°C° 0 mm 1 mps 604 mmHg 89%
    07:00 +5°C° 0 mm 1 mps 604 mmHg 81%
    08:00 +7°C° 0 mm 1 mps 605 mmHg 73%
    09:00 +7°C° 0 mm 2 mps 606 mmHg 66%
    10:00 +8°C° 0 mm 2 mps 606 mmHg 65%
    11:00 +9°C° 0 mm 2 mps 606 mmHg 63%
    12:00 +10°C° 0 mm 2 mps 606 mmHg 62%
    13:00 +10°C° 0 mm 2 mps 606 mmHg 64%
    14:00 +10°C° 0 mm 2 mps 606 mmHg 65%
    15:00 +10°C° 0 mm 2 mps 606 mmHg 67%
    16:00 +8°C° 0 mm 2 mps 605 mmHg 75%
    17:00 +8°C° 0 mm 1 mps 604 mmHg 82%
    18:00 +6°C° 0 mm 1 mps 604 mmHg 90%
    19:00 +6°C° 0 mm 1 mps 604 mmHg 90%
    20:00 +6°C° 0 mm 1 mps 604 mmHg 90%
    21:00 +6°C° 0 mm 1 mps 604 mmHg 90%
    22:00 +6°C° 0 mm 1 mps 603 mmHg 90%
    23:00 +5°C° 0 mm 1 mps 603 mmHg 90%

    25 October, Friday

    Time Temperature Precipitation Wind Pressure Humidity
    00:00 +5°C° 0 mm 1 mps 603 mmHg 91%
    01:00 +5°C° 0 mm 1 mps 603 mmHg 90%
    02:00 +5°C° 0 mm 1 mps 603 mmHg 90%
    03:00 +5°C° 0 mm 1 mps 602 mmHg 90%
    04:00 +5°C° 0 mm 1 mps 602 mmHg 90%
    05:00 +5°C° 0 mm 1 mps 602 mmHg 90%
    06:00 +5°C° 0 mm 1 mps 602 mmHg 90%
    07:00 +6°C° 0 mm 1 mps 603 mmHg 84%
    08:00 +8°C° 0 mm 1 mps 604 mmHg 78%
    09:00 +8°C° 0 mm 2 mps 604 mmHg 72%
    10:00 +9°C° 0 mm 2 mps 605 mmHg 70%
    11:00 +10°C° 0 mm 2 mps 605 mmHg 67%
    12:00 +12°C° 0 mm 2 mps 605 mmHg 65%
    13:00 +12°C° 0 mm 2 mps 605 mmHg 66%
    14:00 +12°C° 0 mm 2 mps 605 mmHg 67%
    15:00 +10°C° 0 mm 2 mps 604 mmHg 69%
    16:00 +10°C° 0 mm 1 mps 604 mmHg 76%
    17:00 +9°C° 0 mm 1 mps 603 mmHg 82%
    18:00 +7°C° 0 mm 1 mps 603 mmHg 89%
    19:00 +7°C° 0 mm 1 mps 603 mmHg 90%
    20:00 +7°C° 0 mm 1 mps 603 mmHg 90%
    21:00 +7°C° 0 mm 1 mps 603 mmHg 91%
    22:00 +7°C° 0 mm 1 mps 602 mmHg 90%
    23:00 +7°C° 0 mm 1 mps 602 mmHg 90%
    Show more